Aérodrome :
LOGIN :

S'inscrire | Disclaimer

   EN    FR    IT 

 










Légende :    VFR   VFR Marginal   IFR   IFR Intensif   IFR Très Intensif
Visi : 
Plafond : 
>= 8 km
>= 3000ft
5 à 8 km
1000 à 3000 ft
1500m à 5 km
500 à 1000 ft
800 à 1500m
200 à 500 ft
< 800m
< 200 ft
Symboles :   Orages  Brouillard  Fortes neiges  Fortes précipitations  Vent > 20 kt
SIGMETs :   Divers  Orages  Givrage  Turbulence  Onde Orograph.  Cendres Volcan.







- Altitude de l'aérodrome : 39 ft
- Code IATA : CTA


LICC - Catania Fontanarossa

DERNIER METAR :
  • 192020Z 25006KT 9999 FEW110 20/19 Q1018

METARs EXPIRÉS :
  • 191950Z 26007KT 9999 FEW110 21/19 Q1018
  • 191920Z 26010KT 9999 FEW110 21/19 Q1018
  • 191850Z 24005KT 9999 FEW110 20/19 Q1018
  • 191820Z 25007KT 9999 FEW100 20/19 Q1017
  • 191750Z 25008KT 9999 BKN110 20/19 Q1017

TAF TAF LICC
Valide du 19 à 18h jusqu'au 20 à 18h UTC


191700Z 1918/2018 VRB05KT 9999 SCT030
TEMPO 1918/1920 4000 TSRA
BECMG 2009/2011 08010KT
Pas de NOTAMs connus pour ce terrain.



MET'MAP, la Météo Aéronautique d'un coup d'oeil ! - Copyright ORBIFLY Décembre 2007 - Disclaimer

ORBIFLY MET'MAP TEAM :

Programmation & Développement : Alexandra Zaïnal
Conception & Développement : Baudouin d'Aumeries
Co-Programmation & Développement : Marc-Olivier Méhu
Soutien technique & logistique : Manuel Goepfert

Contact : metmap@orbifly.com




SOURCES & CREDITS :

   NOAA